• In Uzbekistan
  • List of Countries
  • For 7 days
  • Water Temperature
  • Weather Map
  • Weather Widgets
  • user-avatar
    Login

    Hourly Weather Asadabad

    Today, 4 April, Saturday

    Time Temperature Precipitation Wind Pressure Humidity
    00:00 +13°C° 0 mm 2 mps 658 mmHg 45%
    01:00 +13°C° 0 mm 2 mps 658 mmHg 43%
    02:00 +12°C° 0 mm 3 mps 658 mmHg 41%
    03:00 +11°C° 0 mm 3 mps 658 mmHg 41%
    04:00 +11°C° 0 mm 3 mps 658 mmHg 40%
    05:00 +11°C° 0 mm 3 mps 657 mmHg 39%
    06:00 +12°C° 0 mm 3 mps 658 mmHg 38%
    07:00 +14°C° 0 mm 3 mps 658 mmHg 36%
    08:00 +16°C° 0 mm 3 mps 659 mmHg 34%
    09:00 +18°C° 0 mm 2 mps 659 mmHg 31%
    10:00 +19°C° 0 mm 2 mps 660 mmHg 28%
    11:00 +22°C° 0 mm 1 mps 660 mmHg 25%
    12:00 +21°C° 0 mm 2 mps 660 mmHg 25%
    13:00 +23°C° 0 mm 2 mps 659 mmHg 25%
    14:00 +23°C° 0 mm 2 mps 659 mmHg 26%
    15:00 +23°C° 0 mm 2 mps 659 mmHg 27%
    16:00 +23°C° 0 mm 2 mps 659 mmHg 29%
    17:00 +23°C° 0 mm 1 mps 658 mmHg 30%
    18:00 +21°C° 0 mm 1 mps 658 mmHg 39%
    19:00 +19°C° 0 mm 1 mps 658 mmHg 47%
    20:00 +14°C° 0 mm 0 mps 658 mmHg 55%
    21:00 +15°C° 0 mm 1 mps 658 mmHg 53%
    22:00 +15°C° 0 mm 1 mps 658 mmHg 52%
    23:00 +15°C° 0 mm 1 mps 658 mmHg 50%

    Tomorrow, 5 April, Sunday

    Time Temperature Precipitation Wind Pressure Humidity
    00:00 +15°C° 0 mm 2 mps 658 mmHg 48%
    01:00 +15°C° 0 mm 2 mps 658 mmHg 47%
    02:00 +14°C° 0 mm 2 mps 658 mmHg 45%
    03:00 +14°C° 0 mm 2 mps 657 mmHg 44%
    04:00 +13°C° 0 mm 3 mps 657 mmHg 43%
    05:00 +13°C° 0 mm 3 mps 657 mmHg 42%
    06:00 +15°C° 0 mm 2 mps 658 mmHg 40%
    07:00 +16°C° 0 mm 2 mps 658 mmHg 38%
    08:00 +17°C° 0 mm 2 mps 659 mmHg 37%
    09:00 +18°C° 0 mm 2 mps 659 mmHg 34%
    10:00 +21°C° 0 mm 1 mps 660 mmHg 31%
    11:00 +22°C° 0 mm 1 mps 660 mmHg 28%
    12:00 +22°C° 0 mm 1 mps 660 mmHg 28%
    13:00 +23°C° 0 mm 2 mps 659 mmHg 28%
    14:00 +24°C° 0 mm 2 mps 659 mmHg 28%
    15:00 +23°C° 0 mm 2 mps 659 mmHg 29%
    16:00 +23°C° 0 mm 2 mps 659 mmHg 29%
    17:00 +23°C° 0 mm 2 mps 659 mmHg 30%
    18:00 +20°C° 0 mm 2 mps 659 mmHg 41%
    19:00 +19°C° 0 mm 1 mps 659 mmHg 51%
    20:00 +16°C° 0 mm 1 mps 659 mmHg 62%
    21:00 +16°C° 0.1 mm 1 mps 659 mmHg 62%
    22:00 +16°C° 0.1 mm 1 mps 659 mmHg 62%
    23:00 +15°C° 0.1 mm 1 mps 659 mmHg 62%

    Day after tomorrow, 6 April, Monday

    Time Temperature Precipitation Wind Pressure Humidity
    00:00 +15°C° 0 mm 1 mps 659 mmHg 60%
    01:00 +15°C° 0 mm 2 mps 658 mmHg 58%
    02:00 +14°C° 0 mm 2 mps 658 mmHg 56%
    03:00 +14°C° 0 mm 2 mps 658 mmHg 55%
    04:00 +14°C° 0 mm 2 mps 657 mmHg 53%
    05:00 +14°C° 0 mm 2 mps 657 mmHg 52%
    06:00 +15°C° 0 mm 2 mps 658 mmHg 49%
    07:00 +16°C° 0 mm 2 mps 658 mmHg 45%
    08:00 +17°C° 0 mm 2 mps 659 mmHg 42%
    09:00 +18°C° 0 mm 2 mps 659 mmHg 38%
    10:00 +20°C° 0 mm 2 mps 659 mmHg 34%
    11:00 +22°C° 0 mm 1 mps 659 mmHg 30%
    12:00 +21°C° 0 mm 2 mps 659 mmHg 30%
    13:00 +23°C° 0 mm 2 mps 659 mmHg 29%
    14:00 +23°C° 0 mm 2 mps 659 mmHg 28%
    15:00 +23°C° 0 mm 2 mps 658 mmHg 29%
    16:00 +23°C° 0 mm 2 mps 658 mmHg 29%
    17:00 +22°C° 0 mm 1 mps 657 mmHg 30%
    18:00 +21°C° 0 mm 1 mps 658 mmHg 39%
    19:00 +19°C° 0 mm 1 mps 658 mmHg 49%
    20:00 +17°C° 0 mm 2 mps 658 mmHg 59%
    21:00 +16°C° 0.1 mm 1 mps 658 mmHg 61%
    22:00 +16°C° 0.1 mm 1 mps 658 mmHg 62%
    23:00 +16°C° 0.1 mm 1 mps 658 mmHg 64%

    7 April, Tuesday

    Time Temperature Precipitation Wind Pressure Humidity
    00:00 +15°C° 0 mm 1 mps 658 mmHg 62%
    01:00 +15°C° 0 mm 1 mps 657 mmHg 60%
    02:00 +14°C° 0 mm 1 mps 656 mmHg 57%
    03:00 +14°C° 0 mm 2 mps 656 mmHg 54%
    04:00 +14°C° 0 mm 2 mps 656 mmHg 51%
    05:00 +14°C° 0 mm 2 mps 656 mmHg 48%
    06:00 +15°C° 0 mm 2 mps 656 mmHg 45%
    07:00 +16°C° 0 mm 2 mps 657 mmHg 42%
    08:00 +17°C° 0 mm 2 mps 657 mmHg 39%
    09:00 +20°C° 0 mm 1 mps 657 mmHg 36%
    10:00 +21°C° 0 mm 1 mps 658 mmHg 34%
    11:00 +22°C° 0 mm 1 mps 658 mmHg 31%
    12:00 +23°C° 0 mm 2 mps 658 mmHg 32%
    13:00 +22°C° 0 mm 3 mps 657 mmHg 33%
    14:00 +23°C° 0 mm 4 mps 657 mmHg 33%
    15:00 +22°C° 0.1 mm 3 mps 657 mmHg 40%
    16:00 +20°C° 0.1 mm 3 mps 656 mmHg 46%
    17:00 +19°C° 0.1 mm 2 mps 655 mmHg 53%
    18:00 +18°C° 0.5 mm 2 mps 655 mmHg 60%
    19:00 +18°C° 0.5 mm 1 mps 655 mmHg 67%
    20:00 +15°C° 0.5 mm 0 mps 656 mmHg 74%
    21:00 +16°C° 0.3 mm 1 mps 656 mmHg 73%
    22:00 +15°C° 0.3 mm 1 mps 656 mmHg 73%
    23:00 +15°C° 0.3 mm 1 mps 656 mmHg 72%

    8 April, Wednesday

    Time Temperature Precipitation Wind Pressure Humidity
    00:00 +15°C° 0.2 mm 1 mps 655 mmHg 70%
    01:00 +15°C° 0.2 mm 1 mps 655 mmHg 68%
    02:00 +15°C° 0.2 mm 1 mps 655 mmHg 67%
    03:00 +15°C° 0.1 mm 2 mps 654 mmHg 65%
    04:00 +14°C° 0.1 mm 2 mps 654 mmHg 64%
    05:00 +14°C° 0.1 mm 2 mps 654 mmHg 62%
    06:00 +15°C° 0.1 mm 2 mps 654 mmHg 57%
    07:00 +18°C° 0.1 mm 1 mps 655 mmHg 53%
    08:00 +19°C° 0.1 mm 1 mps 655 mmHg 48%
    09:00 +20°C° 0.2 mm 1 mps 656 mmHg 45%
    10:00 +21°C° 0.2 mm 1 mps 656 mmHg 43%
    11:00 +21°C° 0.2 mm 2 mps 656 mmHg 40%
    12:00 +23°C° 0.3 mm 2 mps 656 mmHg 39%
    13:00 +23°C° 0.3 mm 2 mps 656 mmHg 38%
    14:00 +23°C° 0.3 mm 2 mps 656 mmHg 37%
    15:00 +23°C° 0.4 mm 2 mps 655 mmHg 41%
    16:00 +21°C° 0.4 mm 2 mps 654 mmHg 45%
    17:00 +20°C° 0.4 mm 2 mps 654 mmHg 48%
    18:00 +18°C° 0.8 mm 2 mps 654 mmHg 57%
    19:00 +17°C° 0.8 mm 2 mps 654 mmHg 65%
    20:00 +14°C° 0.8 mm 3 mps 654 mmHg 74%
    21:00 +15°C° 1.4 mm 2 mps 654 mmHg 76%
    22:00 +14°C° 1.4 mm 2 mps 654 mmHg 77%
    23:00 +14°C° 1.4 mm 2 mps 654 mmHg 79%

    9 April, Thursday

    Time Temperature Precipitation Wind Pressure Humidity
    00:00 +14°C° 1.2 mm 2 mps 654 mmHg 80%
    01:00 +13°C° 1.2 mm 1 mps 654 mmHg 80%
    02:00 +13°C° 1.2 mm 1 mps 653 mmHg 81%
    03:00 +13°C° 0.4 mm 1 mps 653 mmHg 81%
    04:00 +12°C° 0.4 mm 1 mps 653 mmHg 81%
    05:00 +11°C° 0.4 mm 0 mps 653 mmHg 81%
    06:00 +12°C° 0.2 mm 0 mps 654 mmHg 78%
    07:00 +13°C° 0.2 mm 0 mps 654 mmHg 74%
    08:00 +14°C° 0.2 mm 0 mps 655 mmHg 71%
    09:00 +16°C° 0.4 mm 1 mps 655 mmHg 66%
    10:00 +17°C° 0.4 mm 2 mps 655 mmHg 62%
    11:00 +18°C° 0.4 mm 2 mps 655 mmHg 58%
    12:00 +19°C° 0.2 mm 2 mps 655 mmHg 57%
    13:00 +19°C° 0.2 mm 2 mps 655 mmHg 56%
    14:00 +20°C° 0.2 mm 2 mps 655 mmHg 56%
    15:00 +20°C° 0.4 mm 2 mps 655 mmHg 56%
    16:00 +19°C° 0.4 mm 2 mps 655 mmHg 56%
    17:00 +19°C° 0.4 mm 2 mps 655 mmHg 56%
    18:00 +19°C° 0.2 mm 1 mps 655 mmHg 62%
    19:00 +18°C° 0.2 mm 1 mps 655 mmHg 69%
    20:00 +16°C° 0.2 mm 1 mps 655 mmHg 76%
    21:00 +15°C° 0.2 mm 1 mps 655 mmHg 72%
    22:00 +15°C° 0.2 mm 1 mps 655 mmHg 69%
    23:00 +15°C° 0.2 mm 1 mps 656 mmHg 66%
    Show more